User: anonymous
Location: State Camp
(41.2367°N, 77.7828°W)
Time: 02:15:39
(UTC-04:00)
Language:

ADEOS Rocket - Orbit

View from above orbital plane
View from above orbital plane
View from above satellite
View from above satellite

Ground track
Ground track

The orbit data is extracted from the following two-line orbital elements,

1 24279U 96046C   14231.81346286 -.00000057  00000-0 -27728-4 0  7046
2 24279 098.7427 291.4957 0300645 042.9098 089.4363 13.46988581885254
Epoch (UTC): 19 August 2014 19:31:23
Eccentricity: 0.0300645
inclination: 98.7427°
perigee height: 859 km
apogee height: 1307 km
right ascension of ascending node: 291.4957°
argument of perigee: 42.9098°
revolutions per day: 13.46988581
mean anomaly at epoch: 89.4363°
orbit number at epoch: 88525

The dashed part of the orbit path shows where the satellite is in the earth's shadow,  

DLR